Bemidji, MN

7:56 PM CST on November 18, 2017 (GMT -0600)
Bemidji-Beltrami County

Weather History for KBJI - February, 2014

Change the Weather History Date:

Thursday, February 13, 2014

  Actual Average Record
Temperature  
Mean Temperature 6 °F -  
Max Temperature 16 °F 21 °F 48 °F (2011)
Min Temperature -5 °F -2 °F -39 °F (1951)
Degree Days  
Heating Degree Days 60    
Moisture  
Dew Point 5 °F    
Average Humidity 81    
Maximum Humidity 90    
Minimum Humidity 67    
Precipitation  
Precipitation 0.00 in - - ()
Sea Level Pressure  
Sea Level Pressure 29.54 in    
Wind  
Wind Speed 12 mph (NNW)    
Max Wind Speed 20 mph    
Max Gust Speed 28 mph    
Visibility 6 miles    
Events Snow    
Averages and records for this station are not official NWS values.
T = Trace of Precipitation, MM = Missing Value Source: NWS Daily Summary

Daily Weather History Graph

Daily Weather History Graph

Search for Another Location

Airport or City:

Trip Planner

Search our weather history database for the weather conditions in past years. The results will help you decide how hot, cold, wet, or windy it might be!

Date:

Astronomy

Feb. 13, 2014 Rise Set
Actual Time 7:28 AM CST 5:40 PM CST
Civil Twilight 6:56 AM CST 6:12 PM CST
Nautical Twilight 6:20 AM CST 6:48 PM CST
Astronomical Twilight 5:44 AM CST 7:23 PM CST
Moon 4:49 PM CST (2/13) 6:23 AM CST (2/13)
Length of Visible Light 11h 15m
Length of Day
10h 11m
Waxing Gibbous, 99% of the Moon is Illuminated
Feb 13
Waxing Gibbous
Feb 14
Full
Feb 22
Last Quarter
Mar 1
New
Mar 8
First Quarter

Hourly Weather History & Observations

Time (CST) Temp. Windchill Dew Point Humidity Pressure Visibility Wind Dir Wind Speed Gust Speed Precip Events Conditions
12:10 AM 12.0 °F -5.6 °F 4.3 °F 71% 29.51 in 7.0 mi ESE 18.4 mph 26.5 mph N/A   Overcast
12:29 AM 12.2 °F -4.3 °F 5.2 °F 73% 29.49 in 4.0 mi SE 16.1 mph 27.6 mph N/A Snow Light Snow
12:49 AM 12.2 °F -4.8 °F 6.1 °F 76% 29.49 in 10.0 mi SE 17.3 mph 20.7 mph N/A   Overcast
1:10 AM 12.2 °F -4.8 °F 7.0 °F 80% 29.47 in 10.0 mi SE 17.3 mph 20.7 mph N/A   Overcast
1:29 AM 12.6 °F -3.3 °F 7.7 °F 81% 29.46 in 10.0 mi SE 15.0 mph 21.9 mph N/A   Overcast
1:49 AM 12.4 °F -4.1 °F 8.6 °F 85% 29.43 in 1.2 mi SE 16.1 mph - N/A Snow Light Snow
2:10 AM 12.6 °F -2.7 °F 9.0 °F 85% 29.42 in 2.5 mi SE 13.8 mph - N/A Snow Light Snow
2:29 AM 12.7 °F -1.8 °F 9.3 °F 86% 29.41 in 4.0 mi SE 12.7 mph - N/A Snow Light Snow
2:49 AM 13.1 °F -2.0 °F 9.5 °F 86% 29.40 in 2.5 mi SE 13.8 mph - N/A Snow Light Snow
3:10 AM 13.5 °F -0.2 °F 10.2 °F 87% 29.39 in 2.5 mi SE 11.5 mph 17.3 mph N/A Snow Light Snow
3:29 AM 13.8 °F -0.5 °F 10.8 °F 88% 29.37 in 3.0 mi SE 12.7 mph - N/A Snow Light Snow
3:49 AM 14.4 °F 0.2 °F 10.9 °F 86% 29.36 in 5.0 mi SE 12.7 mph 19.6 mph N/A Snow Light Snow
4:10 AM 14.7 °F 0.1 °F 11.3 °F 86% 29.35 in 5.0 mi ESE 13.8 mph 19.6 mph N/A Snow Light Snow
4:29 AM 15.3 °F 2.0 °F 11.7 °F 86% 29.34 in 7.0 mi SE 11.5 mph - N/A   Overcast
4:49 AM 15.4 °F 3.0 °F 12.0 °F 86% 29.34 in 7.0 mi SE 10.4 mph - N/A   Overcast
5:10 AM 15.8 °F 2.7 °F 12.2 °F 86% 29.34 in 5.0 mi SE 11.5 mph - N/A   Overcast
5:29 AM 16.2 °F 3.9 °F 12.6 °F 86% 29.34 in 7.0 mi ESE 10.4 mph - N/A   Overcast
5:49 AM 16.2 °F 6.5 °F 12.7 °F 86% 29.34 in 7.0 mi ESE 6.9 mph - N/A   Overcast
6:10 AM 16.2 °F 7.6 °F 13.1 °F 88% 29.33 in 5.0 mi East 5.8 mph - N/A   Overcast
6:29 AM 16.2 °F 7.6 °F 13.5 °F 89% 29.34 in 4.0 mi East 5.8 mph - N/A Snow Light Snow
6:49 AM 16.2 °F 7.6 °F 13.8 °F 90% 29.34 in 4.0 mi East 5.8 mph - N/A Snow Light Snow
7:10 AM 16.3 °F 9.2 °F 14.0 °F 90% 29.34 in 4.0 mi East 4.6 mph - N/A Snow Light Snow
7:29 AM 16.5 °F 9.4 °F 14.0 °F 90% 29.35 in 2.5 mi ENE 4.6 mph - N/A Snow Light Snow
7:49 AM 16.3 °F 9.2 °F 14.0 °F 90% 29.37 in 2.5 mi NNE 4.6 mph - N/A Snow Light Snow
8:10 AM 16.3 °F 10.8 °F 13.8 °F 90% 29.39 in 3.0 mi North 3.5 mph - N/A Snow Light Snow
8:29 AM 16.5 °F 9.4 °F 14.0 °F 90% 29.40 in 1.8 mi NNW 4.6 mph - N/A Snow Light Snow
8:49 AM 16.5 °F 6.9 °F 13.8 °F 89% 29.41 in 2.0 mi NNW 6.9 mph - N/A Snow Light Snow
9:10 AM 16.5 °F 6.0 °F 13.6 °F 88% 29.42 in 1.5 mi NNW 8.1 mph - N/A Snow Light Snow
9:29 AM 16.7 °F 5.3 °F 13.6 °F 88% 29.43 in 2.0 mi NNW 9.2 mph - N/A Snow Light Snow
9:49 AM 16.7 °F 4.5 °F 13.3 °F 86% 29.44 in 1.5 mi NNW 10.4 mph - N/A Snow Light Snow
10:10 AM 16.5 °F 3.6 °F 12.2 °F 83% 29.46 in 3.0 mi NNW 11.5 mph - N/A Snow Light Snow
10:29 AM 14.7 °F -1.1 °F 10.6 °F 84% 29.48 in 3.0 mi NW 16.1 mph - N/A Snow Light Snow
10:49 AM 13.8 °F -2.2 °F 9.0 °F 81% 29.49 in 3.0 mi NW 16.1 mph - N/A Snow Light Snow
11:10 AM 13.5 °F -4.2 °F 9.0 °F 82% 29.50 in 0.8 mi NW 19.6 mph - N/A Snow Light Snow
11:29 AM 13.6 °F -3.5 °F 8.6 °F 80% 29.51 in 1.5 mi NW 18.4 mph 23.0 mph N/A Snow Light Snow
11:49 AM 13.6 °F -0.7 °F 7.7 °F 77% 29.51 in 3.0 mi NNW 12.7 mph 23.0 mph N/A Snow Light Snow
12:10 PM 14.0 °F -2.0 °F 8.1 °F 77% 29.52 in 2.5 mi NNW 16.1 mph 21.9 mph N/A Snow Light Snow
12:29 PM 14.0 °F -0.8 °F 7.9 °F 77% 29.53 in 4.0 mi NNW 13.8 mph 21.9 mph N/A Snow Light Snow
12:49 PM 13.8 °F -3.2 °F 7.7 °F 77% 29.54 in 2.5 mi NW 18.4 mph 23.0 mph N/A Snow Light Snow
1:29 PM 13.6 °F -3.0 °F 7.5 °F 77% 29.56 in 4.0 mi NNW 17.3 mph - N/A Snow Light Snow
1:49 PM 13.6 °F -1.9 °F 6.8 °F 74% 29.57 in 10.0 mi NNW 15.0 mph 20.7 mph N/A Snow Light Snow
2:10 PM 13.6 °F -1.3 °F 7.2 °F 75% 29.59 in 7.0 mi NW 13.8 mph 19.6 mph N/A Snow Light Snow
2:29 PM 13.3 °F -1.8 °F 6.3 °F 74% 29.59 in 7.0 mi NNW 13.8 mph 17.3 mph N/A Snow Light Snow
2:50 PM 13.1 °F -2.6 °F 5.9 °F 73% 29.60 in 7.0 mi NW 15.0 mph 19.6 mph N/A   Overcast
3:10 PM 12.2 °F -5.3 °F 4.8 °F 72% 29.62 in 10.0 mi WNW 18.4 mph - N/A   Overcast
3:29 PM 12.2 °F -5.8 °F 4.6 °F 72% 29.63 in 7.0 mi WNW 19.6 mph - N/A   Overcast
3:49 PM 10.9 °F -5.9 °F 3.6 °F 72% 29.64 in 10.0 mi WNW 16.1 mph 20.7 mph N/A   Overcast
4:10 PM 10.6 °F -5.2 °F 3.2 °F 72% 29.65 in 10.0 mi WNW 13.8 mph - N/A   Overcast
4:29 PM 10.6 °F -5.2 °F 2.7 °F 70% 29.66 in 10.0 mi NNW 13.8 mph 18.4 mph N/A   Overcast
4:49 PM 10.8 °F -4.3 °F 1.6 °F 67% 29.66 in 10.0 mi NNW 12.7 mph 19.6 mph N/A   Scattered Clouds
5:10 PM 9.7 °F -6.3 °F 1.2 °F 69% 29.68 in 10.0 mi NW 13.8 mph - N/A   Clear
5:29 PM 8.2 °F -5.1 °F 0.3 °F 70% 29.69 in 10.0 mi NW 9.2 mph - N/A   Scattered Clouds
5:49 PM 7.7 °F -3.7 °F -0.6 °F 69% 29.69 in 10.0 mi NNW 6.9 mph - N/A   Scattered Clouds
6:10 PM 7.2 °F -4.3 °F -0.8 °F 70% 29.70 in 10.0 mi NNW 6.9 mph - N/A   Clear
6:29 PM 5.2 °F -3.8 °F -1.5 °F 74% 29.71 in 10.0 mi North 4.6 mph - N/A   Clear
6:49 PM 5.2 °F -3.8 °F -1.3 °F 75% 29.71 in 10.0 mi NNW 4.6 mph - N/A   Clear
7:10 PM 1.2 °F -11.5 °F -3.8 °F 79% 29.71 in 10.0 mi WNW 6.9 mph - N/A   Clear
7:29 PM -0.6 °F -13.6 °F -4.4 °F 84% 29.71 in 10.0 mi NW 6.9 mph - N/A   Clear
7:49 PM -2.6 °F -17.3 °F -7.1 °F 81% 29.71 in 10.0 mi NW 8.1 mph - N/A   Clear
8:10 PM -3.5 °F -15.7 °F -7.2 °F 84% 29.72 in 10.0 mi NW 5.8 mph - N/A   Clear
8:29 PM -3.6 °F -17.3 °F -7.1 °F 85% 29.72 in 10.0 mi NW 6.9 mph - N/A   Clear
8:49 PM -5.4 °F -20.8 °F -9.0 °F 84% 29.72 in 10.0 mi NW 8.1 mph - N/A   Clear
9:10 PM -5.8 °F -18.4 °F -9.4 °F 84% 29.71 in 10.0 mi NW 5.8 mph - N/A   Clear
9:29 PM -5.1 °F -20.4 °F -8.7 °F 84% 29.73 in 10.0 mi WNW 8.1 mph - N/A   Clear
9:49 PM -3.1 °F -19.1 °F -6.7 °F 85% 29.74 in 10.0 mi WNW 9.2 mph - N/A   Clear
10:10 PM -3.1 °F -17.9 °F -6.7 °F 85% 29.75 in 10.0 mi WNW 8.1 mph - N/A   Clear
10:29 PM -4.2 °F -14.8 °F -8.3 °F 82% 29.75 in 10.0 mi NW 4.6 mph - N/A   Clear
10:49 PM -5.1 °F -17.6 °F -8.9 °F 84% 29.75 in 10.0 mi NW 5.8 mph - N/A   Scattered Clouds
11:10 PM -5.4 °F -18.0 °F -9.2 °F 84% 29.75 in 10.0 mi NW 5.8 mph - N/A   Scattered Clouds
11:29 PM -5.8 °F -14.5 °F -9.4 °F 84% 29.75 in 10.0 mi NW 3.5 mph - N/A   Mostly Cloudy
11:49 PM -5.8 °F - -9.4 °F 84% 29.74 in 10.0 mi Calm Calm - N/A   Mostly Cloudy